Regional Weather Roundup
Issued by NWS Charleston, SC

Current Version | Previous Version | Graphics & Text | Print | Product List | Glossary On
Versions: 1 2 3 4 5 6 7 8 9 10 11 12 13 14 15 16 17 18 19 20 21 22 23 24 25 26 27 28 29 30 31 32 33 34 35 36 37 38 39 40 41 42 43 44 45 46 47 48 49 50
000
ASUS42 KCHS 282125
RWRCHS

REGIONAL WEATHER ROUNDUP
NATIONAL WEATHER SERVICE CHARLESTON SC
400 PM EST SUN DEC 28 2014

NOTE: "FAIR" INDICATES FEW OR NO CLOUDS BELOW 12,000 FEET WITH NO
SIGNIFICANT WEATHER AND/OR OBSTRUCTIONS TO VISIBILITY.

NOT ALL STATIONS ARE QUALITY CONTROLLED BY THE NATIONAL
WEATHER SERVICE. USE DATA WITH CAUTION...ESPECIALLY
DEWPOINT OBSERVATIONS.

SCZ027-030-031-034>040-042>050-282200-
...SOUTHEAST SOUTH CAROLINA...

CITY           SKY/WX    TMP DP  RH WIND       PRES   REMARKS
N CHARLESTON   PTSUNNY   74  63  68 SW12      30.05R
WATERFRONT PRK   N/A     66 N/A N/A SW8         N/A
MOUNT PLEASANT FAIR      72  66  83 S12       30.05R
PINOPOLIS        N/A     79  66  65 VRB3      29.95R
MONCKS CORNER  CLOUDY    73  64  73 SW3       30.04R
SUMMERVILLE    CLOUDY    73  64  73 SW3       30.05R
BEAUFORT MCAS  MOSUNNY   70  63  78 SE8       30.05R
BEAUFORT ARPT  FAIR      70  64  83 CALM      30.04S
HILTON HEAD IS SUNNY     72  64  78 S5        30.06R
WALTERBORO     CLOUDY    73  61  64 SW3       30.04S
ALLENDALE      CLOUDY    75  64  69 VRB5      30.03R

...SOUTHERN MIDLANDS AND PEE DEE...

CITY           SKY/WX    TMP DP  RH WIND       PRES   REMARKS
GEORGETOWN     NOT AVBL
KINGSTREE      NOT AVBL
ORANGEBURG     CLOUDY    70  61  73 W5        30.03S
BARNWELL       CLOUDY    72  63  73 CALM      30.04S
AIKEN          CLOUDY    63  63 100 W10       30.08R
MANNING        CLOUDY    72  52  49 SW3       30.03S
COLUMBIA       CLOUDY    65  63  93 SW9       30.02S
SUMTER         CLOUDY    67  61  81 SW13      30.01S
FLORENCE       CLOUDY    70  61  73 SW9       30.02R
MYRTLE BEACH   NOT AVBL
N MYRTLE BEACH PTSUNNY   65  59  81 SW12      30.02S

$$

GAZ063-065-086>088-099>101-113>116-118-119-134>141-150-282200-
...SOUTHEAST GEORGIA...

CITY           SKY/WX    TMP DP  RH WIND       PRES   REMARKS
SAVANNAH ARPT  PTSUNNY   76  62  62 W12       30.04S
HUNTER AAF     PTSUNNY   77  65  66 W6        30.03R
FORT STEWART   CLOUDY    78  64  62 SW3       30.03R
STATESBORO     PTSUNNY   75  63  66 W5        30.04S
SYLVANIA       CLOUDY    74  64  71 W3        30.05R
CLAXTON        FAIR      75  64  69 W3        30.04S

...CSRA...CENTRAL AND FAR SOUTHEAST GEORGIA...

CITY           SKY/WX    TMP DP  RH WIND       PRES   REMARKS
THOMSON        CLOUDY    65  64  95 W5        30.09S
AUGUSTA-BUSH   CLOUDY    69  62  78 W10       30.03R
AUGUSTA-DANIEL CLOUDY    66  62  87 W7        30.05R
SWAINSBORO     CLOUDY    75  68  78 W8        30.04S
VIDALIA        CLOUDY    75  64  69 W5        30.04F
EASTMAN        CLOUDY    74  68  81 W5        30.07S
HAZLEHURST     FAIR      78  66  68 CALM      30.04S
ALMA           CLOUDY    78  60  53 SW7       30.04S
WAYCROSS       PTSUNNY   79  68  69 SW10      30.06R
JESUP          CLOUDY    81  68  65 SW7       30.05S
BAXLEY         CLOUDY    77  64  65 CALM      30.04S
BRUNSWICK      CLOUDY    79  63  57 SW7       30.06S
SAINT SIMONS   MOSUNNY   69  62  78 S3        30.06R

$$

SCZ027-028-034-036>038-045-046-048>050-GAZ119-141-282200-
...LAKE AND SUPPLEMENTAL COASTAL OBSERVATIONS...

STATION/POSITION TIME  TEMP    WIND        PRES    WAVE   SWELL
                       AIR SEA DIR/SP/G            HT/PER HT/PER/DIR
                 (UTC) (F)     (DEG/KT/KT) (MB)    (FT/S) (FT/S/D)
UPR LAKE MARION  NOT AVBL
WINYAH BAY       2100   72     200/  7     1016.0S
LAKE MURRAY      2100   61     240/  8/  9 1015.9S
ACE BASIN NERRS  2100   65        CALM     1017.0S
FORT PULASKI     2100   67 57  180/  3/  4 1017.8R
SAPELO ISLAND    2100   72     160/  7     1017.0S

$$

ANZ835-935-AMZ111-154-330-350-352-354-370-450-454-472-282200-
...C-MAN AND BUOY OBSERVATIONS...

STATION/POSITION TIME  TEMP    WIND        PRES    WAVE   SWELL
                       AIR SEA DIR/SP/G            HT/PER HT/PER/DIR
                 (UTC) (F)     (DEG/KT/KT) (MB)    (FT/S) (FT/S/D)
BUOY 41004       2100   73 73  230/ 14/ 16 1017.3R   3/14   2/14
BUOY 41008       2100   62 60  180/  8/ 10 1017.7R   3/15   3/ 90/15
FOLLY BEACH CMAN 2100   61     220/  5/  6 1018.2R
CAPERS NEARSHORE 2000   62     220/  4/  6   N/A
FRIPP NEARSHORE  NOT AVBL


STATION/POSITION TIME  TEMP    WIND        PRES    WAVE   SWELL
                       AIR SEA DIR/SP/G            HT/PER HT/PER/DIR
                 (UTC) (F)     (DEG/KT/KT) (MB)    (FT/S) (FT/S/D)
5E ST. MARYS GA  2100      62                N/A     3/15   2/ 90/15
FRYING PAN BUOY  2100   70 68  230/ 10/ 10 1018.3R   3/14   3/ 90/14
BUOY 41025       2100   71                 1016.9R   4/14
CAPE LOOKOUT NC  2100   64     220/  9/ 12 1017.2R
BUOY 41002       2001   74 75  220/ 19/ 23 1019.7R   5/13   3/ 50/13
BUOY 41010       2100   76 77  270/ 12/ 14 1019.6R   5/15   5/ 70/15
ST AUGUSTINE FL  2100   66     150/  4/  5 1019.1R


$$



USA.gov is the U.S. government's official web portal to all federal, state and local government web resources and services.